Terminal Aerodrome Forecast
Issued by NWS Dodge City, KS

Home | Current Version | Previous Version | Graphics & Text | Print | Product List | Glossary Off
Versions: 1 2 3 4 5 6 7 8 9 10 11 12 13 14 15 16 17 18 19 20 21 22 23 24 25 26 27 28 29 30 31 32 33 34 35 36 37 38 39 40 41 42 43 44 45 46 47 48 49 50

869
FTUS43 KDDC 151905 AAA
TAFDDC
TAF AMD
KDDC 151905Z 1519/1618 15018G24KT P6SM SKC
     FM160000 16016G26KT P6SM -SHRA SCT090
     FM160300 16015G25KT P6SM -SHRA VCTS BKN090CB
      TEMPO 1603/1606 4SM TS OVC040CB
     FM160600 16011G19KT P6SM -SHRA VCTS BKN090CB WS020/19030KT
     FM160700 17011KT P6SM VCTS BKN150CB
     FM161400 19006KT P6SM BKN009=

USA.gov is the U.S. government's official web portal to all federal, state and local government web resources and services.